Weather History for Panama City, FL

Change the Weather History Date:

Saturday, May 26, 2012

  Actual Average Record
Temperature  
Mean Temperature 81 °F -  
Max Temperature 93 °F - 93 °F (2012)
Min Temperature 70 °F - 58 °F (2013)
Degree Days  
Heating Degree Days 0    
Cooling Degree Days 16    
Growing Degree Days 30 (Base 50)    
Moisture  
Dew Point 71 °F    
Average Humidity 73    
Maximum Humidity 96    
Minimum Humidity 45    
Precipitation  
Precipitation 0.00 in - 0.00 in (2014)
Month to date precipitation 3.18  
Year to date precipitation 13.88  
Sea Level Pressure  
Sea Level Pressure 30.06 in    
Wind  
Wind Speed 3 mph (SSW)    
Max Wind Speed 14 mph    
Max Gust Speed -    
Visibility 8 miles    
Events Fog    
T = Trace of Precipitation, MM = Missing Value Source: NWS Daily Summary

Daily Weather History Graph

Daily Weather History Graph

Search for Another Location

Airport:

Trip Planner

Search our weather history database for the weather conditions in past years. The results will help you decide how hot, cold, wet, or windy it might be!

Date:

Astronomy

May. 26, 2012 Rise Set
Actual Time 6:43 AM EDT 8:37 PM EDT
Civil Twilight 6:16 AM EDT 9:04 PM EDT
Nautical Twilight 5:43 AM EDT 9:37 PM EDT
Astronomical Twilight 5:09 AM EDT 10:11 PM EDT
Moon 11:34 AM EDT (5/26) 12:19 AM EDT (5/26)
Length of Visible Light 14h 47m
Length of Day
13h 54m
Waxing Crescent, 28% of the Moon is Illuminated
May 26
Waxing Crescent
May 28
First Quarter
Jun 4
Full
Jun 11
Last Quarter
Jun 19
New

Hourly Weather History & Observations

Time (EDT) Temp. Heat Index Dew Point Humidity Pressure Visibility Wind Dir Wind Speed Gust Speed Precip Events Conditions
12:53 AM 75.0 °F - 73.0 °F 94% 30.07 in 6.0 mi Calm Calm - N/A   Clear
1:53 AM 75.0 °F - 73.0 °F 94% 30.07 in 6.0 mi Calm Calm - N/A   Mist
2:53 AM 73.0 °F - 71.1 °F 93% 30.06 in 5.0 mi Calm Calm - N/A   Mist
3:53 AM 73.0 °F - 71.1 °F 93% 30.06 in 8.0 mi Calm Calm - N/A   Partly Cloudy
4:53 AM 71.1 °F - 70.0 °F 96% 30.07 in 4.0 mi East 4.6 mph - N/A   Mist
5:53 AM 71.1 °F - 69.1 °F 93% 30.08 in 4.0 mi Calm Calm - N/A   Scattered Clouds
6:53 AM 70.0 °F - 68.0 °F 93% 30.09 in 3.0 mi Calm Calm - N/A Fog Patches of Fog
7:53 AM 73.0 °F - 71.1 °F 93% 30.11 in 3.0 mi Calm Calm - N/A Fog Patches of Fog
8:53 AM 77.0 °F - 73.0 °F 88% 30.13 in 7.0 mi Calm Calm - N/A Fog Patches of Fog
9:53 AM 84.0 °F 90.2 °F 73.0 °F 69% 30.12 in 10.0 mi SSW 4.6 mph - N/A Fog Patches of Fog
10:53 AM 88.0 °F 93.8 °F 71.1 °F 57% 30.12 in 10.0 mi Calm Calm - N/A Fog Patches of Fog
11:53 AM 90.0 °F 97.9 °F 73.0 °F 57% 30.11 in 10.0 mi South 5.8 mph - N/A   Clear
12:53 PM 91.0 °F 99.3 °F 73.0 °F 55% 30.10 in 10.0 mi SSE 9.2 mph - N/A   Scattered Clouds
1:53 PM 90.0 °F 96.9 °F 72.0 °F 55% 30.09 in 10.0 mi South 11.5 mph - N/A   Mostly Cloudy
2:53 PM 91.9 °F 99.5 °F 72.0 °F 52% 30.06 in 10.0 mi SSW 12.7 mph - N/A   Scattered Clouds
3:53 PM 91.9 °F 95.9 °F 68.0 °F 45% 30.04 in 10.0 mi SSW 10.4 mph - N/A   Partly Cloudy
4:53 PM 91.9 °F 96.9 °F 69.1 °F 47% 30.02 in 10.0 mi SW 13.8 mph - N/A   Partly Cloudy
5:53 PM 91.0 °F 95.2 °F 68.0 °F 47% 30.01 in 10.0 mi WSW 11.5 mph - N/A   Clear
6:53 PM 91.0 °F 95.6 °F 69.1 °F 48% 30.00 in 10.0 mi WSW 8.1 mph - N/A   Partly Cloudy
7:53 PM 87.1 °F 92.8 °F 71.1 °F 59% 30.00 in 10.0 mi SW 5.8 mph - N/A   Clear
8:53 PM 82.9 °F 88.0 °F 72.0 °F 69% 30.01 in 10.0 mi SW 3.5 mph - N/A   Clear
9:53 PM 80.1 °F 84.2 °F 73.0 °F 79% 30.01 in 10.0 mi Variable 3.5 mph - N/A   Clear
10:53 PM 79.0 °F - 73.0 °F 82% 30.03 in 9.0 mi South 4.6 mph - N/A   Clear
11:53 PM 78.1 °F - 73.9 °F 87% 30.02 in 8.0 mi Calm Calm - N/A   Partly Cloudy